| time (UTC) | temp F | wind direction | speed MPH | gust MPH | rain 1hr in | rain 24hr in | rain mn in | humidity % | barometer mb |
| 20260509121744 | 38 | 5 | 0.0 | 0.0 | 0.00 | 0.00 | 0.00 | 74 | 1014.4 |
| 20260509120745 | 38 | 5 | 0.0 | 0.0 | 0.00 | 0.00 | 0.00 | 74 | 1014.2 |
| 20260509115748 | 38 | 5 | 0.0 | 1.0 | 0.00 | 0.00 | 0.00 | 73 | 1014.1 |
| 20260509114751 | 38 | 5 | 0.0 | 4.0 | 0.00 | 0.00 | 0.00 | 72 | 1013.8 |
| 20260509113750 | 38 | 5 | 0.0 | 3.0 | 0.00 | 0.00 | 0.00 | 73 | 1013.8 |
| 20260509112751 | 38 | 4 | 1.0 | 6.0 | 0.00 | 0.00 | 0.00 | 72 | 1013.5 |
| 20260509111755 | 38 | 11 | 3.0 | 4.0 | 0.00 | 0.00 | 0.00 | 72 | 1013.5 |
| 20260509110756 | 39 | 11 | 1.0 | 3.0 | 0.00 | 0.00 | 0.00 | 72 | 1013.2 |
| 20260509105759 | 39 | 10 | 0.0 | 3.0 | 0.00 | 0.00 | 0.00 | 71 | 1013.2 |
| 20260509104740 | 40 | 11 | 1.0 | 4.0 | 0.00 | 0.00 | 0.00 | 71 | 1013.2 |
| 20260509103746 | 40 | 11 | 2.0 | 4.0 | 0.00 | 0.00 | 0.00 | 71 | 1012.9 |
| 20260509102806 | 40 | 11 | 3.0 | 5.0 | 0.00 | 0.00 | 0.00 | 73 | 1012.8 |
| 20260509101745 | 40 | 10 | 2.0 | 4.0 | 0.00 | 0.00 | 0.00 | 72 | 1012.7 |
| 20260509100806 | 40 | 11 | 2.0 | 5.0 | 0.00 | 0.00 | 0.00 | 72 | 1012.5 |
| 20260509095745 | 40 | 14 | 2.0 | 4.0 | 0.00 | 0.00 | 0.00 | 73 | 1012.3 |
| 20260509094749 | 41 | 28 | 2.0 | 6.0 | 0.00 | 0.00 | 0.00 | 72 | 1012.1 |
| 20260509093814 | 41 | 355 | 2.0 | 8.0 | 0.00 | 0.00 | 0.00 | 73 | 1012.0 |
| 20260509092755 | 42 | 19 | 3.0 | 4.0 | 0.00 | 0.00 | 0.00 | 72 | 1011.8 |
| 20260509091755 | 43 | 20 | 3.0 | 4.0 | 0.00 | 0.00 | 0.00 | 71 | 1011.8 |
| 20260509090758 | 43 | 19 | 2.0 | 4.0 | 0.00 | 0.00 | 0.00 | 70 | 1011.5 |
| 20260509085746 | 43 | 19 | 3.0 | 4.0 | 0.00 | 0.00 | 0.00 | 70 | 1011.3 |
| 20260509084748 | 44 | 19 | 0.0 | 2.0 | 0.00 | 0.00 | 0.00 | 68 | 1011.1 |
| 20260509083809 | 44 | 19 | 2.0 | 4.0 | 0.00 | 0.00 | 0.00 | 67 | 1010.8 |
| 20260509082750 | 45 | 19 | 1.0 | 6.0 | 0.00 | 0.00 | 0.00 | 66 | 1010.7 |
| 20260509081755 | 45 | 9 | 2.0 | 4.0 | 0.00 | 0.00 | 0.00 | 67 | 1010.5 |
| 20260509080755 | 45 | 5 | 2.0 | 6.0 | 0.00 | 0.00 | 0.00 | 67 | 1010.5 |
| 20260509075755 | 45 | 5 | 3.0 | 5.0 | 0.00 | 0.00 | 0.00 | 67 | 1010.4 |
| 20260509074820 | 46 | 6 | 2.0 | 4.0 | 0.00 | 0.00 | 0.00 | 67 | 1010.3 |
| 20260509073820 | 46 | 36 | 2.0 | 7.0 | 0.00 | 0.00 | 0.00 | 66 | 1010.1 |
| 20260509072742 | 46 | 342 | 1.0 | 5.0 | 0.00 | 0.00 | 0.00 | 67 | 1010.0 |
| 20260509071742 | 46 | 340 | 3.0 | 6.0 | 0.00 | 0.00 | 0.00 | 67 | 1010.0 |
| 20260509070802 | 47 | 339 | 4.0 | 6.0 | 0.00 | 0.00 | 0.00 | 66 | 1009.8 |
| 20260509065745 | 48 | 345 | 4.0 | 7.0 | 0.00 | 0.00 | 0.00 | 64 | 1009.6 |
| 20260509064745 | 49 | 352 | 5.0 | 7.0 | 0.00 | 0.00 | 0.00 | 62 | 1009.7 |
| 20260509063749 | 50 | 15 | 2.0 | 4.0 | 0.00 | 0.00 | 0.00 | 61 | 1009.5 |
| 20260509062753 | 49 | 15 | 3.0 | 5.0 | 0.00 | 0.00 | 0.00 | 63 | 1009.3 |
| 20260509061754 | 48 | 15 | 2.0 | 3.0 | 0.00 | 0.00 | 0.00 | 65 | 1009.2 |
| 20260509060754 | 49 | 15 | 0.0 | 0.0 | 0.00 | 0.00 | 0.00 | 63 | 1009.1 |
| 20260509055758 | 49 | 15 | 0.0 | 0.0 | 0.00 | 0.00 | 0.00 | 63 | 1008.9 |
| 20260509054758 | 50 | 15 | 0.0 | 0.0 | 0.00 | 0.00 | 0.00 | 61 | 1009.0 |
| 20260509053759 | 50 | 15 | 0.0 | 0.0 | 0.00 | 0.00 | 0.00 | 60 | 1008.8 |
| 20260509052758 | 50 | 15 | 0.0 | 3.0 | 0.00 | 0.00 | 0.00 | 60 | 1008.7 |
| 20260509051818 | 51 | 15 | 2.0 | 2.0 | 0.00 | 0.00 | 0.00 | 60 | 1008.5 |
| 20260509050739 | 52 | 15 | 2.0 | 2.0 | 0.00 | 0.00 | 0.00 | 58 | 1008.3 |
| 20260509045804 | 53 | 15 | 1.0 | 3.0 | 0.00 | 0.00 | 0.00 | 56 | 1008.2 |
| 20260509044743 | 53 | 15 | 0.0 | 4.0 | 0.00 | 0.00 | 0.00 | 55 | 1008.1 |
| 20260509043746 | 54 | 15 | 0.0 | 3.0 | 0.00 | 0.00 | 0.00 | 54 | 1008.0 |
| 20260509042808 | 55 | 15 | 0.0 | 6.0 | 0.00 | 0.00 | 0.00 | 53 | 1008.0 |
| 20260509041752 | 56 | 32 | 3.0 | 7.0 | 0.00 | 0.00 | 0.00 | 51 | 1007.7 |
| 20260509040753 | 56 | 45 | 4.0 | 9.0 | 0.00 | 0.00 | 0.00 | 52 | 1007.4 |
| 20260509035752 | 56 | 60 | 1.0 | 7.0 | 0.00 | 0.00 | 0.00 | 51 | 1007.2 |
| 20260509034757 | 57 | 48 | 5.0 | 7.0 | 0.00 | 0.00 | 0.00 | 50 | 1006.9 |
| 20260509033743 | 58 | 21 | 2.0 | 7.0 | 0.00 | 0.00 | 0.00 | 49 | 1006.6 |
| 20260509032746 | 59 | 47 | 3.0 | 10.0 | 0.00 | 0.00 | 0.00 | 48 | 1006.4 |
| 20260509031749 | 59 | 25 | 3.0 | 10.0 | 0.00 | 0.00 | 0.00 | 47 | 1006.3 |
| 20260509030751 | 59 | 358 | 3.0 | 10.0 | 0.00 | 0.00 | 0.00 | 46 | 1006.0 |
| 20260509025754 | 59 | 18 | 3.0 | 11.0 | 0.00 | 0.00 | 0.00 | 46 | 1005.7 |
| 20260509024758 | 60 | 35 | 5.0 | 13.0 | 0.00 | 0.00 | 0.00 | 45 | 1005.6 |
| 20260509023756 | 60 | 46 | 2.0 | 16.0 | 0.00 | 0.00 | 0.00 | 44 | 1005.5 |
| 20260509022740 | 61 | 15 | 2.0 | 9.0 | 0.00 | 0.00 | 0.00 | 45 | 1005.2 |
| 20260509021742 | 61 | 17 | 3.0 | 7.0 | 0.00 | 0.00 | 0.00 | 45 | 1005.0 |
| 20260509020746 | 62 | 20 | 2.0 | 10.0 | 0.00 | 0.00 | 0.00 | 44 | 1004.8 |
| 20260509015747 | 62 | 319 | 7.0 | 10.0 | 0.00 | 0.00 | 0.00 | 43 | 1004.7 |
| 20260509014749 | 63 | 10 | 7.0 | 14.0 | 0.00 | 0.02 | 0.00 | 43 | 1004.8 |
| 20260509013749 | 64 | 348 | 7.0 | 17.0 | 0.00 | 0.02 | 0.00 | 42 | 1004.8 |
| 20260509012753 | 65 | 7 | 9.0 | 18.0 | 0.00 | 0.02 | 0.00 | 40 | 1004.7 |
| 20260509011757 | 64 | 357 | 11.0 | 20.0 | 0.00 | 0.02 | 0.00 | 40 | 1004.8 |
| 20260509010758 | 65 | 355 | 10.0 | 22.0 | 0.00 | 0.02 | 0.00 | 38 | 1004.4 |
| 20260509005820 | 68 | 301 | 15.0 | 30.0 | 0.00 | 0.02 | 0.00 | 35 | 1004.6 |
| 20260509004743 | 70 | 284 | 17.0 | 20.0 | 0.00 | 0.02 | 0.00 | 30 | 1005.0 |
| 20260509003743 | 70 | 315 | 6.0 | 23.0 | 0.00 | 0.02 | 0.00 | 31 | 1004.5 |
| 20260509002744 | 71 | 314 | 11.0 | 24.0 | 0.00 | 0.02 | 0.00 | 28 | 1004.4 |
| 20260509001742 | 72 | 255 | 9.0 | 23.0 | 0.00 | 0.02 | 0.00 | 27 | 1004.1 |
| 20260509000747 | 72 | 261 | 12.0 | 20.0 | 0.00 | 0.02 | 0.00 | 27 | 1004.3 |
| 20260508235751 | 73 | 279 | 16.0 | 23.0 | 0.00 | 0.02 | 0.00 | 27 | 1004.3 |
| 20260508234752 | 73 | 226 | 13.0 | 22.0 | 0.00 | 0.02 | 0.00 | 26 | 1004.3 |
| 20260508233752 | 73 | 278 | 13.0 | 21.0 | 0.00 | 0.02 | 0.00 | 26 | 1004.0 |
| 20260508232752 | 73 | 294 | 22.0 | 22.0 | 0.00 | 0.02 | 0.00 | 26 | 1004.1 |
| 20260508231740 | 73 | 287 | 10.0 | 12.0 | 0.00 | 0.02 | 0.00 | 26 | 1004.3 |
| 20260508230803 | 73 | 204 | 6.0 | 11.0 | 0.00 | 0.02 | 0.00 | 27 | 1004.3 |
| 20260508225742 | 73 | 263 | 11.0 | 13.0 | 0.00 | 0.02 | 0.00 | 29 | 1004.4 |
| 20260508224742 | 73 | 257 | 11.0 | 16.0 | 0.00 | 0.02 | 0.00 | 27 | 1004.7 |
| 20260508223747 | 74 | 225 | 9.0 | 18.0 | 0.00 | 0.02 | 0.00 | 27 | 1004.6 |
| 20260508222749 | 74 | 206 | 10.0 | 17.0 | 0.00 | 0.02 | 0.00 | 27 | 1004.9 |
| 20260508221749 | 73 | 246 | 12.0 | 18.0 | 0.00 | 0.02 | 0.00 | 27 | 1005.0 |
| 20260508220754 | 74 | 244 | 11.0 | 18.0 | 0.00 | 0.02 | 0.00 | 27 | 1005.2 |
| 20260508215753 | 74 | 212 | 5.0 | 17.0 | 0.00 | 0.02 | 0.00 | 26 | 1005.1 |
| 20260508214757 | 75 | 242 | 9.0 | 21.0 | 0.00 | 0.02 | 0.00 | 26 | 1005.3 |
| 20260508213757 | 75 | 237 | 12.0 | 21.0 | 0.00 | 0.02 | 0.00 | 25 | 1005.5 |
| 20260508212756 | 73 | 184 | 13.0 | 20.0 | 0.00 | 0.02 | 0.00 | 27 | 1005.7 |
| 20260508211818 | 73 | 273 | 7.0 | 22.0 | 0.00 | 0.02 | 0.00 | 27 | 1006.0 |
| 20260508210741 | 75 | 265 | 13.0 | 22.0 | 0.00 | 0.02 | 0.00 | 26 | 1006.2 |
| 20260508205802 | 74 | 262 | 16.0 | 16.0 | 0.00 | 0.02 | 0.00 | 26 | 1006.5 |
| 20260508204801 | 73 | 247 | 10.0 | 20.0 | 0.00 | 0.02 | 0.00 | 26 | 1006.8 |
| 20260508203744 | 73 | 263 | 11.0 | 25.0 | 0.00 | 0.02 | 0.00 | 27 | 1006.9 |
| 20260508202746 | 72 | 267 | 8.0 | 20.0 | 0.00 | 0.02 | 0.00 | 27 | 1007.1 |
| 20260508201746 | 72 | 257 | 11.0 | 19.0 | 0.00 | 0.02 | 0.00 | 27 | 1007.3 |
| 20260508200810 | 72 | 188 | 5.0 | 15.0 | 0.00 | 0.02 | 0.00 | 28 | 1007.2 |
| 20260508195748 | 72 | 213 | 12.0 | 19.0 | 0.00 | 0.02 | 0.00 | 28 | 1007.4 |
| 20260508194749 | 72 | 227 | 12.0 | 16.0 | 0.00 | 0.02 | 0.00 | 28 | 1007.7 |
| 20260508193751 | 71 | 234 | 5.0 | 15.0 | 0.00 | 0.02 | 0.00 | 27 | 1007.6 |
| 20260508192755 | 71 | 238 | 14.0 | 17.0 | 0.00 | 0.02 | 0.00 | 30 | 1007.8 |
| 20260508191754 | 71 | 258 | 10.0 | 18.0 | 0.00 | 0.02 | 0.00 | 28 | 1008.1 |
| 20260508190756 | 70 | 252 | 6.0 | 16.0 | 0.00 | 0.02 | 0.00 | 29 | 1008.2 |
| 20260508185755 | 69 | 236 | 10.0 | 14.0 | 0.00 | 0.02 | 0.00 | 32 | 1008.4 |
| 20260508184744 | 70 | 264 | 8.0 | 20.0 | 0.00 | 0.02 | 0.00 | 29 | 1008.8 |
| 20260508183744 | 69 | 267 | 12.0 | 14.0 | 0.00 | 0.02 | 0.00 | 30 | 1009.0 |
| 20260508182804 | 67 | 244 | 6.0 | 11.0 | 0.00 | 0.02 | 0.00 | 31 | 1009.1 |
| 20260508181745 | 68 | 205 | 11.0 | 15.0 | 0.00 | 0.02 | 0.00 | 31 | 1009.3 |
| 20260508180746 | 68 | 242 | 5.0 | 19.0 | 0.00 | 0.02 | 0.00 | 30 | 1009.5 |
| 20260508175751 | 69 | 186 | 6.0 | 13.0 | 0.00 | 0.02 | 0.00 | 31 | 1009.7 |
| 20260508174752 | 68 | 184 | 13.0 | 13.0 | 0.00 | 0.02 | 0.00 | 33 | 1010.0 |
| 20260508173813 | 68 | 201 | 7.0 | 16.0 | 0.00 | 0.02 | 0.00 | 30 | 1009.9 |
| 20260508172753 | 68 | 198 | 2.0 | 11.0 | 0.00 | 0.02 | 0.00 | 33 | 1010.0 |
| 20260508171753 | 67 | 225 | 7.0 | 14.0 | 0.00 | 0.02 | 0.00 | 31 | 1010.0 |
| 20260508170756 | 66 | 183 | 6.0 | 13.0 | 0.00 | 0.02 | 0.00 | 33 | 1010.2 |
| 20260508165739 | 66 | 211 | 10.0 | 16.0 | 0.00 | 0.02 | 0.00 | 34 | 1010.5 |
| 20260508164741 | 65 | 167 | 10.0 | 14.0 | 0.00 | 0.02 | 0.00 | 33 | 1010.6 |
| 20260508163745 | 65 | 166 | 10.0 | 15.0 | 0.00 | 0.02 | 0.00 | 37 | 1010.6 |
| 20260508162752 | 64 | 138 | 12.0 | 15.0 | 0.00 | 0.02 | 0.00 | 37 | 1010.7 |
| 20260508161815 | 62 | 170 | 12.0 | 15.0 | 0.00 | 0.02 | 0.00 | 39 | 1010.8 |
| 20260508160755 | 61 | 156 | 12.0 | 14.0 | 0.00 | 0.02 | 0.00 | 41 | 1010.9 |
| 20260508155813 | 59 | 198 | 10.0 | 12.0 | 0.00 | 0.02 | 0.00 | 43 | 1011.1 |
| 20260508154751 | 58 | 161 | 9.0 | 11.0 | 0.00 | 0.02 | 0.00 | 48 | 1011.2 |
| 20260508153816 | 57 | 190 | 5.0 | 12.0 | 0.00 | 0.02 | 0.00 | 47 | 1011.4 |
| 20260508152755 | 56 | 188 | 4.0 | 7.0 | 0.00 | 0.02 | 0.00 | 49 | 1010.5 |
| 20260508151817 | 55 | 169 | 3.0 | 7.0 | 0.00 | 0.02 | 0.00 | 48 | 1010.7 |
| 20260508150755 | 55 | 200 | 5.0 | 6.0 | 0.00 | 0.02 | 0.00 | 50 | 1010.8 |
| 20260508145738 | 53 | 200 | 5.0 | 5.0 | 0.00 | 0.02 | 0.00 | 48 | 1010.8 |
| 20260508144804 | 51 | 287 | 1.0 | 4.0 | 0.00 | 0.02 | 0.00 | 51 | 1010.8 |
| 20260508143804 | 50 | 286 | 0.0 | 5.0 | 0.00 | 0.02 | 0.00 | 54 | 1010.8 |
| 20260508142742 | 49 | 313 | 0.0 | 4.0 | 0.00 | 0.02 | 0.00 | 56 | 1010.9 |
| 20260508141741 | 48 | 313 | 0.0 | 5.0 | 0.00 | 0.02 | 0.00 | 58 | 1011.1 |
| 20260508140746 | 47 | 315 | 1.0 | 2.0 | 0.00 | 0.02 | 0.00 | 63 | 1011.1 |
| 20260508135750 | 45 | 315 | 1.0 | 4.0 | 0.00 | 0.02 | 0.00 | 63 | 1011.1 |
| 20260508134750 | 44 | 315 | 2.0 | 4.0 | 0.00 | 0.02 | 0.00 | 62 | 1011.1 |
| 20260508133809 | 44 | 315 | 3.0 | 3.0 | 0.00 | 0.02 | 0.00 | 60 | 1011.1 |
| 20260508132748 | 42 | 315 | 0.0 | 1.0 | 0.00 | 0.02 | 0.00 | 69 | 1011.1 |
| 20260508131751 | 39 | 315 | 0.0 | 2.0 | 0.00 | 0.02 | 0.00 | 73 | 1011.2 |
| 20260508130755 | 38 | 315 | 1.0 | 3.0 | 0.00 | 0.02 | 0.00 | 74 | 1011.3 |
| 20260508125756 | 37 | 315 | 0.0 | 0.0 | 0.00 | 0.02 | 0.00 | 76 | 1011.1 |
| 20260508124757 | 34 | 315 | 0.0 | 2.0 | 0.00 | 0.02 | 0.00 | 78 | 1011.2 |
| 20260508123756 | 33 | 315 | 3.0 | 3.0 | 0.00 | 0.02 | 0.00 | 79 | 1011.2 |
| 20260508122741 | 33 | 315 | 0.0 | 0.0 | 0.00 | 0.02 | 0.00 | 78 | 1011.1 |